{"data":{"norad_id":63994,"intl_designator":"2025-101A","name":"STARLINK-33871","alt_names":[],"object_type":"PAYLOAD","status":"ACTIVE","operator":null,"country":"US","launch_date":"2025-05-14","launch_site_code":"AFETR","launch_vehicle":null,"mission":null,"orbit_class":"UNKNOWN","rcs_meters":null,"size_class":null,"mass_kg":null,"dimensions":null,"purposes":["comms"],"wikipedia_slug":null,"has_3d_model":false,"image_url":null,"decayed_at":null,"tle_current":{"epoch":"2026-05-24T19:31:09.201216Z","epoch_age_seconds":94315,"freshness":"FRESH","line1":"1 63994U 25101A   26144.81330094  .00019573  00000+0  71874-3 0  9999","line2":"2 63994  43.0009 288.3769 0001889 249.1283 110.9367 15.27586640 58629","mean_motion":15.2758664,"eccentricity":0.0001889,"inclination_deg":43.0009,"raan_deg":288.3769,"arg_perigee_deg":249.1283,"mean_anomaly_deg":110.9367,"bstar":0.00071874,"rev_number":5862,"period_min":94.266338961959,"perigee_km":481.7331392652,"apogee_km":484.32528786069,"semimajor_km":6861.1662135629,"source":"CELESTRAK","updated_at":"2026-05-25T13:38:20.217081Z"}}}